25 de junio de 2022

Hora Código Tiempo Temp. Visibilidad Cielo nuboso Viento METAR/SPECI
3:20 a. m.
V
59 °F 6¼ mi+ - Var Var 2 kt METAR EDDS 250120Z AUTO VRB02KT CAVOK 15/13 Q1014
2:50 a. m.
V
59 °F 6¼ mi+ - Var Var 4 kt METAR EDDS 250050Z AUTO VRB04KT CAVOK 15/13 Q1014
2:20 a. m.
V
59 °F 6¼ mi+ - 220° 220° 3 kt METAR EDDS 250020Z AUTO 22003KT 180V270 CAVOK 15/13 Q1014
1:50 a. m.
V
59 °F 6¼ mi+ - Var Var 1 kt METAR EDDS 242350Z AUTO VRB01KT CAVOK 15/14 Q1014
1:20 a. m.
V
59 °F 6¼ mi+ - Var Var 2 kt METAR EDDS 242320Z AUTO VRB02KT CAVOK 15/14 Q1014
12:50 a. m.
V
59 °F 6¼ mi+ - Var Var 1 kt METAR EDDS 242250Z AUTO VRB01KT CAVOK 15/14 Q1014
12:20 a. m.
V
61 °F 6¼ mi+ - 170° 170° 3 kt METAR EDDS 242220Z AUTO 17003KT 070V230 CAVOK 16/14 Q1014

24 de junio de 2022

Hora Código Tiempo Temp. Visibilidad Cielo nuboso Viento METAR/SPECI
11:50 p. m.
V
61 °F 6¼ mi+ - Var Var 4 kt METAR EDDS 242150Z AUTO VRB04KT CAVOK 16/14 Q1014
11:20 p. m.
V
61 °F 6¼ mi+ - 200° 200° 5 kt METAR EDDS 242120Z AUTO 20005KT 120V270 CAVOK 16/14 Q1014
10:50 p. m.
V
61 °F 6¼ mi+ - 200° 200° 4 kt METAR EDDS 242050Z AUTO 20004KT 150V260 CAVOK 16/14 Q1013
10:20 p. m.
V
61 °F 6¼ mi+ - 210° 210° 3 kt METAR EDDS 242020Z AUTO 21003KT 140V270 CAVOK 16/14 Q1013
9:50 p. m.
V
61 °F 6¼ mi+ - Var Var 1 kt METAR EDDS 241950Z AUTO VRB01KT CAVOK 16/15 Q1013 NOSIG
9:20 p. m.
V
61 °F 6¼ mi+ - 250° 250° 4 kt METAR EDDS 241920Z AUTO 25004KT 210V280 9999 -RA NSC 16/15 Q1013 NOSIG
8:50 p. m.
V
61 °F 6¼ mi+ - 240° 240° 6 kt METAR EDDS 241850Z AUTO 24006KT 190V270 9999 -RA NSC 16/15 Q1013 NOSIG
8:20 p. m.
V
63 °F 6¼ mi+ - 230° 230° 10 kt METAR EDDS 241820Z AUTO 23010KT 190V270 9999 -RA NSC 17/15 Q1012 TEMPO SHRA SCT040CB
7:50 p. m.
V
63 °F 6¼ mi+ - 230° 230° 9 kt METAR EDDS 241750Z AUTO 23009KT 160V280 9999 -RA NSC 17/15 Q1011 TEMPO SHRA SCT040CB
7:20 p. m.
V
63 °F 6¼ mi+ - 220° 220° 8 - 18 kt METAR EDDS 241720Z AUTO 22008G18KT 140V260 9999 -SHRA FEW044 FEW///TCU 17/16 Q1011 TEMPO SHRA
6:50 p. m.
V
64 °F 6¼ mi+ - 210° 210° 5 kt METAR EDDS 241650Z AUTO 21005KT 140V280 9999 -SHRA FEW041 FEW///TCU 18/16 Q1011 TEMPO SHRA SCT040CB
6:20 p. m.
V
63 °F 6¼ mi+ - Var Var 3 kt METAR EDDS 241620Z AUTO VRB03KT 9999 -RA NSC 17/16 Q1011 RESHRA TEMPO SHRA SCT040CB
5:50 p. m.
V
63 °F 6¼ mi+ - Var Var 3 kt METAR EDDS 241550Z AUTO VRB03KT 9999 -RA NSC 17/16 Q1011 RESHRA TEMPO SHRA SCT040CB
5:20 p. m.
V
63 °F 6¼ mi+ - 230° 230° 4 kt METAR EDDS 241520Z AUTO 23004KT 170V280 9999 SHRA FEW015 FEW///CB 17/16 Q1011 TEMPO TSRA
4:50 p. m.
V
63 °F 5⅝ mi 4.200 ft 190° 190° 7 kt METAR EDDS 241450Z AUTO 19007KT 150V250 9000 SHRA VCTS FEW014 BKN042 FEW///CB 17/16 Q1011 RETS TEMPO TSRA
4:20 p. m.
V
63 °F 6¼ mi+ 4.500 ft Var Var 5 kt METAR EDDS 241420Z AUTO VRB05KT 9999 +TSRA BKN045 SCT///CB 17/16 Q1010 TEMPO 24020G35KT 2000 TSRA
3:50 p. m.
I
64 °F 2⅜ mi - 110° 110° 6 kt METAR EDDS 241350Z AUTO 11006KT 050V160 9000 3800 +TSGRRA BR FEW005 BKN///CB 18/17 Q1009 TEMPO 24020G35KT 1200 TSRA
3:20 p. m.
V
72 °F 6¼ mi+ - 350° 350° 8 kt METAR EDDS 241320Z AUTO 35008KT 310V030 9999 +TSGRRA SCT040 BKN///CB 22/15 Q1009 TEMPO 24020G35KT 2000 TSRA
2:50 p. m.
V
73 °F 6¼ mi+ 4.300 ft 350° 350° 9 kt METAR EDDS 241250Z AUTO 35009KT 320V040 9999 -SHRA BKN043 FEW///CB 23/15 Q1009 RESHRA TEMPO SHRA
2:20 p. m.
V
75 °F 6¼ mi+ 4.500 ft 350° 350° 8 kt METAR EDDS 241220Z AUTO 35008KT 320V030 9999 -SHRA BKN045 FEW///CB 24/15 Q1009 RESHRA TEMPO 24015G25KT 4000 TSRA
1:50 p. m.
V
77 °F 6¼ mi+ - 330° 330° 7 kt METAR EDDS 241150Z AUTO 33007KT 260V020 9999 VCSH SCT043 FEW///CB 25/14 Q1009 TEMPO TSRA
1:20 p. m.
V
75 °F 6¼ mi+ - Var Var 4 kt METAR EDDS 241120Z AUTO VRB04KT 9999 SCT043 24/13 Q1009 NOSIG
12:50 p. m.
V
75 °F 6¼ mi+ - Var Var 4 kt METAR EDDS 241050Z AUTO VRB04KT 9999 FEW041 24/14 Q1009 NOSIG
12:20 p. m.
V
75 °F 6¼ mi+ 4.700 ft 270° 270° 4 kt METAR EDDS 241020Z AUTO 27004KT 230V030 9999 SCT039 BKN047 24/15 Q1009 NOSIG
11:50 a. m.
V
73 °F 6¼ mi+ - Var Var 4 kt METAR EDDS 240950Z AUTO VRB04KT 9999 FEW038 SCT046 23/14 Q1010 NOSIG
11:20 a. m.
V
73 °F 6¼ mi+ - Var Var 3 kt METAR EDDS 240920Z AUTO VRB03KT CAVOK 23/14 Q1010 NOSIG
10:50 a. m.
V
73 °F 6¼ mi+ - 230° 230° 5 kt METAR EDDS 240850Z AUTO 23005KT 180V280 9999 FEW038 23/14 Q1010 NOSIG
10:20 a. m.
V
70 °F 6¼ mi+ - 260° 260° 9 kt METAR EDDS 240820Z AUTO 26009KT 230V290 9999 FEW028 SCT043 21/14 Q1010 NOSIG
9:50 a. m.
V
70 °F 6¼ mi+ - 240° 240° 7 kt METAR EDDS 240750Z AUTO 24007KT 200V290 9999 FEW026 SCT045 21/15 Q1011 NOSIG
9:20 a. m.
V
70 °F 6¼ mi+ - 230° 230° 7 kt METAR EDDS 240720Z AUTO 23007KT 140V280 CAVOK 21/15 Q1011
8:50 a. m.
V
70 °F 6¼ mi+ - 210° 210° 5 kt METAR EDDS 240650Z AUTO 21005KT 130V280 CAVOK 21/16 Q1011 NOSIG
8:20 a. m.
V
68 °F 6¼ mi+ - 190° 190° 5 kt METAR EDDS 240620Z AUTO 19005KT 150V240 CAVOK 20/16 Q1011 NOSIG
7:50 a. m.
V
66 °F 6¼ mi+ - Var Var 3 kt METAR EDDS 240550Z AUTO VRB03KT CAVOK 19/16 Q1011 NOSIG
7:20 a. m.
V
66 °F 6¼ mi+ - Var Var 2 kt METAR EDDS 240520Z AUTO VRB02KT CAVOK 19/16 Q1011 NOSIG
6:50 a. m.
V
63 °F 6¼ mi+ - Var Var 2 kt METAR EDDS 240450Z AUTO VRB02KT CAVOK 17/15 Q1011 NOSIG
6:20 a. m.
V
61 °F 6¼ mi+ - Var Var 1 kt METAR EDDS 240420Z AUTO VRB01KT CAVOK 16/15 Q1011 NOSIG
5:50 a. m.
V
61 °F 6¼ mi+ - 250° 250° 4 kt METAR EDDS 240350Z AUTO 25004KT CAVOK 16/15 Q1011
5:20 a. m.
V
61 °F 6¼ mi+ - 240° 240° 4 kt METAR EDDS 240320Z AUTO 24004KT 200V260 CAVOK 16/15 Q1011
4:50 a. m.
V
61 °F 6¼ mi+ - Var Var 2 kt METAR EDDS 240250Z AUTO VRB02KT CAVOK 16/15 Q1011
4:20 a. m.
V
63 °F 6¼ mi+ - Var Var 2 kt METAR EDDS 240220Z AUTO VRB02KT CAVOK 17/16 Q1011
3:50 a. m.
V
63 °F 6¼ mi+ - Var Var 2 kt METAR EDDS 240150Z AUTO VRB02KT CAVOK 17/16 Q1011
3:20 a. m.
V
63 °F 6¼ mi+ - 150° 150° 3 kt METAR EDDS 240120Z AUTO 15003KT 100V210 CAVOK 17/16 Q1012
2:50 a. m.
V
63 °F 6¼ mi+ - 090° 090° 3 kt METAR EDDS 240050Z AUTO 09003KT 050V160 CAVOK 17/16 Q1012
2:20 a. m.
V
63 °F 6¼ mi+ - 090° 090° 5 kt METAR EDDS 240020Z AUTO 09005KT 9999 FEW011 17/16 Q1012
1:50 a. m.
V
63 °F 6¼ mi+ - Var Var 2 kt METAR EDDS 232350Z AUTO VRB02KT 9999 -RA FEW010 17/16 Q1012
1:20 a. m.
V
63 °F 6¼ mi+ - 240° 240° 3 kt METAR EDDS 232320Z AUTO 24003KT 180V320 9999 -RA FEW002 17/16 Q1012 RESHRA
12:50 a. m.
V
63 °F 5⅝ mi 4.800 ft Var Var 5 kt METAR EDDS 232250Z AUTO VRB05KT 9000 SHRA FEW008 BKN048 FEW///TCU 17/15 Q1012
12:20 a. m.
V
66 °F 6¼ mi+ 4.600 ft 190° 190° 11 kt METAR EDDS 232220Z AUTO 19011KT 140V270 9999 SHRA VCTS BKN046 FEW///CB 19/15 Q1012

23 de junio de 2022

Hora Código Tiempo Temp. Visibilidad Cielo nuboso Viento METAR/SPECI
11:50 p. m.
V
68 °F 6¼ mi+ - 220° 220° 11 - 21 kt METAR EDDS 232150Z AUTO 22011G21KT 160V280 9999 -SHRA FEW///TCU 20/15 Q1011
11:20 p. m.
V
72 °F 6¼ mi+ - Var Var 2 kt METAR EDDS 232120Z AUTO VRB02KT CAVOK 22/16 Q1011
10:50 p. m.
V
73 °F 6¼ mi+ - Var Var 2 kt METAR EDDS 232050Z AUTO VRB02KT CAVOK 23/16 Q1010
10:20 p. m.
V
73 °F 6¼ mi+ - 090° 090° 3 kt METAR EDDS 232020Z AUTO 09003KT CAVOK 23/16 Q1010
9:50 p. m.
V
75 °F 6¼ mi+ - 080° 080° 4 kt METAR EDDS 231950Z AUTO 08004KT CAVOK 24/16 Q1010 NOSIG
9:20 p. m.
V
75 °F 6¼ mi+ - 080° 080° 5 kt METAR EDDS 231920Z AUTO 08005KT CAVOK 24/16 Q1009 NOSIG
8:50 p. m.
V
77 °F 6¼ mi+ - 080° 080° 5 kt METAR EDDS 231850Z AUTO 08005KT CAVOK 25/16 Q1009 NOSIG
8:20 p. m.
V
81 °F 6¼ mi+ - 070° 070° 6 kt METAR EDDS 231820Z AUTO 07006KT CAVOK 27/15 Q1009 NOSIG
7:50 p. m.
V
82 °F 6¼ mi+ - 070° 070° 8 kt METAR EDDS 231750Z AUTO 07008KT CAVOK 28/15 Q1009 NOSIG
7:20 p. m.
V
84 °F 6¼ mi+ - 070° 070° 7 kt METAR EDDS 231720Z AUTO 07007KT CAVOK 29/14 Q1009 NOSIG
6:50 p. m.
V
84 °F 6¼ mi+ - 080° 080° 7 kt METAR EDDS 231650Z AUTO 08007KT 050V150 CAVOK 29/14 Q1009 NOSIG
6:20 p. m.
V
84 °F 6¼ mi+ - 080° 080° 5 kt METAR EDDS 231620Z AUTO 08005KT 020V140 CAVOK 29/15 Q1009 NOSIG
5:50 p. m.
V
84 °F 6¼ mi+ - 100° 100° 5 kt METAR EDDS 231550Z AUTO 10005KT 340V120 CAVOK 29/15 Q1010 NOSIG
5:20 p. m.
V
84 °F 6¼ mi+ - 100° 100° 4 kt METAR EDDS 231520Z AUTO 10004KT 020V180 CAVOK 29/15 Q1010 NOSIG
4:50 p. m.
V
84 °F 6¼ mi+ - 080° 080° 5 kt METAR EDDS 231450Z AUTO 08005KT 030V130 CAVOK 29/16 Q1010 NOSIG
4:20 p. m.
V
84 °F 6¼ mi+ - 120° 120° 6 kt METAR EDDS 231420Z AUTO 12006KT 080V200 CAVOK 29/15 Q1011 NOSIG
3:50 p. m.
V
84 °F 6¼ mi+ - Var Var 4 kt METAR EDDS 231350Z AUTO VRB04KT CAVOK 29/15 Q1011 NOSIG
3:20 p. m.
V
82 °F 6¼ mi+ - Var Var 3 kt METAR EDDS 231320Z AUTO VRB03KT 9999 FEW049 28/15 Q1011 NOSIG
2:50 p. m.
V
82 °F 6¼ mi+ - 100° 100° 4 kt METAR EDDS 231250Z AUTO 10004KT 010V180 9999 FEW047 28/17 Q1012 NOSIG
2:20 p. m.
V
81 °F 6¼ mi+ - Var Var 3 kt METAR EDDS 231220Z AUTO VRB03KT 9999 FEW043 27/16 Q1012
1:50 p. m.
V
79 °F 6¼ mi+ - Var Var 3 kt METAR EDDS 231150Z AUTO VRB03KT 9999 FEW041 26/16 Q1013 NOSIG
1:20 p. m.
V
79 °F 6¼ mi+ - Var Var 4 kt METAR EDDS 231120Z AUTO VRB04KT 9999 FEW041 26/16 Q1013 NOSIG
12:50 p. m.
V
79 °F 6¼ mi+ - 070° 070° 5 kt METAR EDDS 231050Z AUTO 07005KT 020V130 CAVOK 26/16 Q1013 NOSIG
12:20 p. m.
V
77 °F 6¼ mi+ - Var Var 3 kt METAR EDDS 231020Z AUTO VRB03KT CAVOK 25/16 Q1013 NOSIG
11:50 a. m.
V
77 °F 6¼ mi+ - 080° 080° 5 kt METAR EDDS 230950Z AUTO 08005KT 030V110 CAVOK 25/16 Q1014 NOSIG
11:20 a. m.
V
75 °F 6¼ mi+ - 070° 070° 6 kt METAR EDDS 230920Z AUTO 07006KT 030V140 9999 FEW025 24/17 Q1014 NOSIG
10:50 a. m.
V
75 °F 6¼ mi+ - 070° 070° 4 kt METAR EDDS 230850Z AUTO 07004KT 020V140 CAVOK 24/16 Q1014 NOSIG
10:20 a. m.
V
73 °F 6¼ mi+ - Var Var 3 kt METAR EDDS 230820Z AUTO VRB03KT CAVOK 23/16 Q1014 NOSIG
9:50 a. m.
V
73 °F 6¼ mi+ - 080° 080° 4 kt METAR EDDS 230750Z AUTO 08004KT 040V150 CAVOK 23/17 Q1014 NOSIG
9:20 a. m.
V
72 °F 6¼ mi+ - Var Var 3 kt METAR EDDS 230720Z AUTO VRB03KT CAVOK 22/17 Q1015 NOSIG
8:50 a. m.
V
70 °F 6¼ mi+ - Var Var 3 kt METAR EDDS 230650Z AUTO VRB03KT CAVOK 21/17 Q1015 NOSIG
8:20 a. m.
V
68 °F 6¼ mi+ - 140° 140° 4 kt METAR EDDS 230620Z AUTO 14004KT 090V210 CAVOK 20/16 Q1014 NOSIG
7:50 a. m.
V
68 °F 6¼ mi+ - Var Var 2 kt METAR EDDS 230550Z AUTO VRB02KT CAVOK 20/17 Q1014 NOSIG
7:20 a. m.
V
66 °F 6¼ mi+ - Var Var 1 kt METAR EDDS 230520Z AUTO VRB01KT CAVOK 19/17 Q1014 NOSIG
6:50 a. m.
V
63 °F 6¼ mi+ - 070° 070° 1 kt METAR EDDS 230450Z AUTO 07001KT CAVOK 17/16 Q1014 NOSIG
6:20 a. m.
V
63 °F 6¼ mi+ - 080° 080° 1 kt METAR EDDS 230420Z AUTO 08001KT CAVOK 17/16 Q1014 NOSIG
5:50 a. m.
V
61 °F 6¼ mi+ - Var Var 2 kt METAR EDDS 230350Z AUTO VRB02KT CAVOK 16/15 Q1014
5:20 a. m.
V
61 °F 5⅝ mi - Var Var 2 kt METAR EDDS 230320Z AUTO VRB02KT 9000 NSC 16/16 Q1014
4:50 a. m.
L
61 °F ¼ mi - Var Var 2 kt METAR EDDS 230250Z AUTO VRB02KT 0600 0350 R25/0800U FG FEW002 16/16 Q1014
4:20 a. m.
L
61 °F ⅛ mi - 060° 060° 2 kt METAR EDDS 230220Z AUTO 06002KT 0400 0300 R25/0250D FG FEW001 16/16 Q1014
3:50 a. m.
L
63 °F ½ mi - Var Var 1 kt METAR EDDS 230150Z AUTO VRB01KT 6000 0800 R25/P2000N BCFG FEW002 17/17 Q1014
3:20 a. m.
L
61 °F ⅜ mi - Var Var 1 kt METAR EDDS 230120Z AUTO VRB01KT 8000 0550 R07/P2000N BCFG FEW001 16/16 Q1013
2:50 a. m.
V
63 °F 6¼ mi+ - 090° 090° 3 kt METAR EDDS 230050Z AUTO 09003KT CAVOK 17/16 Q1013
2:20 a. m.
V
63 °F 6¼ mi+ - Var Var 2 kt METAR EDDS 230020Z AUTO VRB02KT CAVOK 17/16 Q1013
1:50 a. m.
V
64 °F 6¼ mi+ - Var Var 1 kt METAR EDDS 222350Z AUTO VRB01KT 9999 FEW029 18/17 Q1013
1:20 a. m.
V
66 °F 6¼ mi+ - Var Var 2 kt METAR EDDS 222320Z AUTO VRB02KT 9999 FEW029 19/17 Q1014
12:50 a. m.
V
66 °F 6¼ mi+ - Var Var 1 kt METAR EDDS 222250Z AUTO VRB01KT 9999 FEW038 19/17 Q1014
12:20 a. m.
V
66 °F 6¼ mi+ 4.600 ft 280° 280° 3 kt METAR EDDS 222220Z AUTO 28003KT 9999 SCT036 BKN046 19/17 Q1013

22 de junio de 2022

Hora Código Tiempo Temp. Visibilidad Cielo nuboso Viento METAR/SPECI
11:50 p. m.
V
64 °F 6¼ mi+ - Var Var 2 kt METAR EDDS 222150Z AUTO VRB02KT 9999 SCT043 18/17 Q1013
11:20 p. m.
V
63 °F 6¼ mi+ - 230° 230° 2 kt METAR EDDS 222120Z AUTO 23002KT 9999 SCT044 17/16 Q1013
10:50 p. m.
V
64 °F 6¼ mi+ - Var Var 1 kt METAR EDDS 222050Z AUTO VRB01KT CAVOK 18/17 Q1012
10:20 p. m.
V
66 °F 6¼ mi+ - Var Var 1 kt METAR EDDS 222020Z AUTO VRB01KT 9999 FEW044 19/17 Q1012
9:50 p. m.
V
66 °F 6¼ mi+ - Var Var 1 kt METAR EDDS 221950Z AUTO VRB01KT 9999 VCSH SCT038 FEW///CB 19/18 Q1012 NOSIG
9:20 p. m.
V
68 °F 6¼ mi+ - Var Var 1 kt METAR EDDS 221920Z AUTO VRB01KT 9999 VCSH FEW///CB 20/17 Q1012 NOSIG
8:50 p. m.
V
68 °F 6¼ mi+ - Var Var 3 kt METAR EDDS 221850Z AUTO VRB03KT CAVOK 20/18 Q1013 NOSIG
8:20 p. m.
V
68 °F 6¼ mi+ - 360° 360° 4 kt METAR EDDS 221820Z AUTO 36004KT 310V040 9999 FEW038 20/18 Q1012 NOSIG
7:20 p. m.
V
70 °F 6¼ mi+ - Var Var 2 kt METAR EDDS 221720Z AUTO VRB02KT 9999 VCSH FEW///CB 21/17 Q1011 NOSIG
Datos más antiguos

Descarga nuestra aplicación

Acceso fácil a todo el tiempo de la aviación en tu teléfono móvil y tableta.
Con muchas funciones no disponibles en el sitio web, como la compatibilidad sin conexión y una lista personal de aeropuertos.

Nosotros y terceros seguimos tu comportamiento en Internet en nuestro sitio web con cookies. Si continúas, asumimos que estás de acuerdo con nuestra política de cookies. Más información